DW9558 Weather Reports


Display with metric or nautical units.
time (UTC)temp
F
wind
direction
speed
MPH
gust
MPH
rain 1hr
in
rain 24hr
in
rain mn
in
humidity
%
barometer
mb
20260508010004 82 82 0.0 5.0 0.00 0.00 0.00 51 1020.0
20260508004503 83 82 1.0 5.0 0.00 0.00 0.00 50 1020.0
20260508003002 84 82 0.0 8.0 0.00 0.00 0.00 49 1020.1
20260508001501 85 80 0.0 4.0 0.00 0.00 0.00 47 1020.3
20260508000100 85 80 0.0 3.0 0.00 0.00 0.00 48 1020.3
20260507234559 85 80 1.0 4.0 0.00 0.00 0.00 48 1020.2
20260507233105 84 80 1.0 4.0 0.00 0.00 0.00 49 1020.3
20260507231556 85 80 1.0 4.0 0.00 0.00 0.00 48 1020.5
20260507230051 84 80 0.0 4.0 0.00 0.00 0.00 50 1020.8
20260507224555 83 79 1.0 9.0 0.00 0.00 0.00 51 1021.0
20260507223045 83 69 2.0 5.0 0.00 0.00 0.00 50 1021.1
20260507221541 82 69 1.0 5.0 0.00 0.00 0.00 52 1021.5
20260507220038 82 69 1.0 6.0 0.00 0.00 0.00 52 1021.7
20260507214535 82 69 1.0 5.0 0.00 0.00 0.00 51 1022.0
20260507213039 81 69 0.0 4.0 0.00 0.00 0.00 54 1022.2
20260507211529 80 69 0.0 3.0 0.00 0.00 0.00 54 1022.4
20260507210026 79 69 1.0 4.0 0.00 0.00 0.00 55 1022.6
20260507204624 79 69 2.0 5.0 0.00 0.00 0.00 55 1022.8
20260507203021 79 69 1.0 3.0 0.00 0.00 0.00 55 1023.0
20260507201521 78 70 0.0 5.0 0.00 0.00 0.00 56 1023.2
20260507200018 78 69 0.0 4.0 0.00 0.00 0.00 56 1023.3
20260507194514 77 69 0.0 4.0 0.00 0.00 0.00 59 1023.5
20260507193015 76 69 0.0 5.0 0.00 0.00 0.00 60 1023.7
20260507191511 75 69 2.0 3.0 0.00 0.00 0.00 62 1023.8
20260507190004 74 69 2.0 8.0 0.00 0.00 0.00 62 1024.0
20260507184559 73 71 2.0 5.0 0.00 0.00 0.00 65 1024.2
20260507183056 72 71 0.0 2.0 0.00 0.00 0.00 67 1024.3
20260507181556 70 71 1.0 4.0 0.00 0.00 0.00 69 1024.5
20260507180047 68 71 0.0 4.0 0.00 0.00 0.00 72 1024.4
20260507174554 67 71 0.0 5.0 0.00 0.00 0.00 73 1024.4
20260507173103 66 71 0.0 4.0 0.00 0.00 0.00 74 1024.6
20260507171544 65 71 0.0 3.0 0.00 0.00 0.00 75 1024.7
20260507170034 64 71 0.0 4.0 0.00 0.00 0.00 76 1024.8
20260507164533 63 71 0.0 4.0 0.00 0.00 0.00 79 1024.9
20260507163024 62 71 0.0 5.0 0.00 0.00 0.00 80 1024.7
20260507161528 61 71 1.0 4.0 0.00 0.00 0.00 82 1024.8
20260507160020 59 71 0.0 3.0 0.00 0.00 0.00 85 1024.7
20260507154518 58 71 0.0 3.0 0.00 0.00 0.00 87 1024.9
20260507153013 57 71 0.0 3.0 0.00 0.00 0.00 88 1024.9
20260507151511 56 71 2.0 4.0 0.00 0.00 0.00 89 1024.9
20260507150010 55 71 0.0 4.0 0.00 0.00 0.00 90 1024.9
20260507144508 55 71 1.0 5.0 0.00 0.00 0.00 90 1024.8
20260507143010 55 71 0.0 5.0 0.00 0.00 0.00 91 1024.7
20260507141502 55 71 1.0 5.0 0.00 0.00 0.00 90 1024.6
20260507140100 55 71 1.0 4.0 0.00 0.00 0.00 90 1024.5
20260507134603 55 71 0.0 1.0 0.00 0.00 0.00 90 1024.4
20260507133058 55 71 0.0 4.0 0.00 0.00 0.00 90 1024.1
20260507131553 55 71 0.0 6.0 0.00 0.00 0.00 90 1024.0
20260507130051 55 71 0.0 3.0 0.00 0.00 0.00 90 1023.9
20260507124549 55 71 0.0 4.0 0.00 0.00 0.00 90 1023.9
20260507123049 55 71 0.0 3.0 0.00 0.00 0.00 90 1023.8
20260507121548 56 71 0.0 4.0 0.00 0.00 0.00 89 1023.9
20260507120056 56 71 0.0 4.0 0.00 0.00 0.00 89 1023.8
20260507114546 56 71 1.0 4.0 0.00 0.00 0.00 89 1023.8
20260507113050 56 71 0.0 5.0 0.00 0.00 0.00 89 1023.8
20260507111546 56 71 0.0 0.0 0.00 0.00 0.00 88 1023.9
20260507110044 56 71 0.0 3.0 0.00 0.00 0.00 88 1023.7
20260507104542 56 71 0.0 3.0 0.00 0.00 0.00 88 1023.7
20260507103042 56 71 0.0 4.0 0.00 0.00 0.00 87 1023.7
20260507101541 57 69 0.0 5.0 0.00 0.00 0.00 86 1023.7
20260507100040 57 69 0.0 2.0 0.00 0.00 0.00 85 1023.7
20260507094536 57 69 2.0 6.0 0.00 0.00 0.00 84 1023.7
20260507093036 58 69 0.0 2.0 0.00 0.00 0.00 84 1023.7
20260507091534 58 69 0.0 3.0 0.00 0.00 0.00 84 1023.8
20260507090033 58 69 0.0 1.0 0.00 0.00 0.00 83 1023.9
20260507084533 58 69 0.0 3.0 0.00 0.00 0.00 83 1023.9
20260507083031 58 69 1.0 3.0 0.00 0.00 0.00 83 1023.9
20260507081536 58 69 0.0 4.0 0.00 0.00 0.00 82 1023.9
20260507080031 58 69 0.0 0.0 0.00 0.00 0.00 82 1023.8
20260507074532 59 69 0.0 0.0 0.00 0.00 0.00 81 1023.8
20260507073026 59 69 0.0 0.0 0.00 0.00 0.00 81 1023.8
20260507071531 59 69 0.0 2.0 0.00 0.00 0.00 80 1023.8
20260507070022 60 69 0.0 1.0 0.00 0.00 0.00 79 1023.8
20260507064523 60 69 0.0 1.0 0.00 0.00 0.00 79 1023.8
20260507063020 61 69 0.0 3.0 0.00 0.00 0.00 77 1023.6
20260507061529 62 69 0.0 2.0 0.00 0.00 0.00 76 1023.6
20260507060019 62 69 0.0 1.0 0.00 0.00 0.00 75 1023.6
20260507054521 63 69 0.0 3.0 0.00 0.00 0.00 75 1023.5
20260507053022 63 69 0.0 0.0 0.00 0.00 0.00 73 1023.6
20260507051518 64 69 0.0 0.0 0.00 0.00 0.00 72 1023.5
20260507050021 65 69 0.0 5.0 0.00 0.00 0.00 72 1023.4
20260507044518 65 69 0.0 5.0 0.00 0.00 0.00 71 1023.3
20260507043017 66 69 0.0 4.0 0.00 0.00 0.00 71 1023.3
20260507041516 67 69 0.0 3.0 0.00 0.00 0.00 71 1023.2
20260507040017 68 69 0.0 5.0 0.00 0.00 0.00 70 1023.0
20260507034515 68 68 0.0 4.0 0.00 0.00 0.00 69 1023.0
20260507033015 70 68 0.0 8.0 0.00 0.00 0.00 68 1022.9
20260507031514 71 66 1.0 4.0 0.00 0.00 0.00 66 1022.7
20260507030014 73 65 2.0 11.0 0.00 0.00 0.00 63 1022.6
20260507024516 73 51 0.0 0.0 0.00 0.00 0.00 59 1022.5
20260507023012 73 51 0.0 0.0 0.00 0.00 0.00 57 1022.5
20260507021512 74 51 0.0 4.0 0.00 0.00 0.00 57 1022.4
20260507020012 74 51 0.0 2.0 0.00 0.00 0.00 57 1022.4
20260507014510 74 51 0.0 2.0 0.00 0.00 0.00 56 1022.5
20260507013012 74 51 1.0 3.0 0.00 0.00 0.00 56 1022.4
20260507011508 74 51 1.0 5.0 0.00 0.00 0.00 56 1022.5